Retour au catalogue

STARLINK-30485

ActifCommunicationsVLEO
NORAD 57920·PAYLOAD·🇺🇸 United States

Lancé Sep 24, 2023 depuis Cape Canaveral Space Force Station

Loading…

Prochains Passages (prochaines 24 heures)

TLE

FraisSource: CelesTrak SupGP

Époque: Sep 15, 2026, 02:30 UTC

1 57920C 23147H   26258.10465278  .00017902  00000+0  64861-3 0  2580
2 57920  43.0021 335.5505 0001853 259.7691 182.5000 15.27559036    17

Suivez STARLINK-30485 en temps réel avec AllMySat

Download on the App Store